Tracking 25949 objects as of 8-Aug-2022
HD Live streaming from Space Station
objects crossing your sky now

COSMOS 1275 DEB

Track COSMOS 1275 DEB now!
10-day predictions


NORAD ID: 17627
Int'l Code: 1981-053KZ
Perigee: 882.2 km
Apogee: 953.6 km
Inclination: 82.9 °
Period: 103.2 minutes
Semi major axis: 7288 km
RCS: 0.0098 m2 (small)
Launch date: June 4, 1981
Source: Commonwealth of Independent States (former USSR) (CIS)
Launch site: PLESETSK MISSILE AND SPACE COMPLEX (PKMTR)

Note: This is SATELLITE DEBRIS
aabbcc
Your satellite tracking list
Your tracking list is empty




NASA's NSSDC Master Catalog

Two Line Element Set (TLE):
1 17627U 81053KW  22219.83267891  .00000729  00000-0  52405-3 0  9997
2 17627  82.9284   3.0106 0048973 188.5951 171.4383 13.95116889888749
Source of the keplerian elements: AFSPC